Preview of NWS' New Version of Forecast
This preview is not operational and should not be used for support decisions.

Regional Weather Roundup (RWR)

Issued by Gray - Portland, ME (GYX)

                            
000
ASUS41 KGYX 202010
RWRGYX
WEATHER ROUNDUP FOR MAINE AND NEW HAMPSHIRE
NATIONAL WEATHER SERVICE GRAY ME
300 PM EST WED FEB 20 2019

MEZ002-005-006-010-012-015-018-020-021-024-026-027-029-202100-
MAINE
  
CITY           SKY/WX    TMP DP  RH WIND       PRES   REMARKS
PORTLAND       CLOUDY    25   8  48 S10       30.45F WCI  15          
SANFORD        FAIR      28   8  43 SW5       30.44F                  
BAR HARBOR     FAIR      23   2  40 W8        30.46R                  
WISCASSET      FAIR      25   8  48 VRB5      30.46F                  
ROCKLAND       FAIR      25   5  42 SW9       30.45F                  
FRYEBURG       FAIR      26   1  34 CALM      30.41F                  
LEWISTONAUBURN FAIR      25   5  42 SW6       30.43F                  
AUGUSTA        FAIR      24   2  38 VRB6      30.43F                  
WATERVILLE     FAIR      24   3  40 SW8       30.39F                  
BANGOR         PTSUNNY   23  -1  35 SW12      30.44S WCI  12          
GREENVILLE       N/A     21  -9  26 NW8       30.28F                  
MILLINOCKET    FAIR      24   0  35 NW9       30.39S                  
HOULTON        FAIR      18  -4  37 W12G20    30.35S WCI   5          
PRESQUE ISLE   FAIR      21  -2  36 W10       30.35S WCI  10          
FRENCHVILLE    FAIR      17  -6  35 W14G21    30.28S WCI   3          
CARIBOU        FAIR      18  -6  34 VRB5      30.32S                  
$$

NHZ002-005-008-009-011-012-014-202100-
NEW HAMPSHIRE
  
CITY           SKY/WX    TMP DP  RH WIND       PRES   REMARKS
PORTSMOUTH     CLOUDY    28   2  33 SW5       30.44F                  
ROCHESTER      FAIR      28   4  35 CALM      30.43F                  
NASHUA         FAIR      30   9  41 CALM      30.46F                  
MANCHESTER     CLOUDY    28   4  35 S5        30.43F                  
CONCORD        FAIR      27   5  39 CALM      30.43F                  
LACONIA        FAIR      27   6  41 SW6       30.42F                  
PLYMOUTH       FAIR      27   3  35 CALM      30.41F                  
BERLIN         FAIR      22   2  42 NW5       30.35F                  
WHITEFIELD     FAIR      23   0  36 CALM      30.37F                  
JAFFREY        CLOUDY    25   5  42 S5        30.39F                  
KEENE          CLOUDY    27  10  49 CALM      30.44F                  
LEBANON        FAIR      25   6  44 W3        30.40F                  
MT WASHINGTON  NOT AVBL                                               
$$

VTZ005-007-008-202100-
VERMONT
  
CITY           SKY/WX    TMP DP  RH WIND       PRES   REMARKS
ST JOHNSBURY     N/A     22   4  46 MISG      30.39F                  
MONTPELIER     FAIR      22   8  55 S8        30.39F                  
BURLINGTON     CLOUDY    25  10  53 S10       30.40F WCI  15          
$$

MAZ007-012-024-CTZ003-RIZ002-NYZ038-NYZ072-202100-
SOUTHERN NEW ENGLAND AND NY
  
CITY           SKY/WX    TMP DP  RH WIND       PRES   REMARKS
BOSTON         CLOUDY    30   6  36 S5        30.48F                  
WORCESTER      CLOUDY    24   7  48 SW6       30.41S                  
NANTUCKET      PTSUNNY   28  13  53 SW7       30.51S                  
PROVIDENCE     CLOUDY    27  10  49 SE5       30.50F                  
HARTFORD       FLURRIES  28  12  51 S6        30.48F                  
ALBANY         CLOUDY    27  10  49 S8        30.43F                  
NEW YORK CITY  SNOW      27  23  85 E12       30.46F VSB 1/2 WCI  17  
$$

ANZ081-ANZ082-ANZ150-NHZ014-MEZ023>029-202100-
COASTAL MARINE OBSERVATIONS
  
STATION/POSITION TIME  TEMP    WIND        PRES    WAVE
                       AIR SEA DIR/SP/G            HT/PER
                 (UTC) (F)     (DEG/KT/KT) (MB)    (FT/S)
MOUNT DESERT ROC 2000   24     280/ 13/ 15 1031.4S
MATINICUS ROCK   1900   24     290/ 13/ 16 1031.5F
ISLE OF SHOALS   1900   25     220/  4/  5 1032.4F
JEFFREYS LEDGE   1938      40                N/A     1/ 9
CASHES LEDGE BUO 1950   28 40              1032.3F   2/ 4
$$

.............KEY..............
   WCI - WIND CHILL
   TC  - TEMPERATURE IN CELSIUS
   VSB - VISIBILITY IN MILES
   HX  - HEAT INDEX
   FAIR- INDICATES FEW OR NO CLOUDS BELOW 12,000 FT, WITH NO 
         SIGNIFICANT WEATHER AND/OR OBSTRUCTIONS TO VISIBILITY.